Location: Taukkyan
(23.1052°N, 94.0030°E)
Time: 11:39:08
(UTC+00:00)

Meteor 2-4 Rocket - Pass Details

Date: 06 July 2020
Orbit: 799 x 908 km, 81.2° (Epoch: 15 August)

Event Time Altitude Azimuth Distance (km) Brightness Sun altitude
Rises 20:31:52 0° 356° (N) 3,534 7.5 -29.5°
Reaches altitude 10° 20:34:22 10° 359° (N) 2,590 6.7 -29.1°
Maximum altitude 20:40:17 72° 83° (E) 945 3.9 -28.2°
Enters shadow 20:41:33 54° 145° (SE) 1,076 4.1 -28.0°
